Lid_Strength_Index
-1 -0 -1 -1 -1 -1 -1 -1 -1 -1 -2 -2 -1 -2 -1 -1 -1 0 3 0 -0 -2 -1 0 1 2 2 4 4 6 10 12 11 10 8 8 8 7 6 6 5 4 4 3 2
-1 -1 -1 -1 -1 -1 -1 -1 -1 -1 -2 -2 -1 -2 -1 -1 1 3 -1 -2 -2 -2 1 2 3 3 5 5 5 7 10 10 7 7 8 8 8 7 7 6 6 5 3 2 2
-1 -1 -1 -1 -1 -2 -2 -2 -1 -1 -2 -2 -1 -2 -2 -1 4 4 -2 -2 -2 -2 0 1 2 3 6 5 6 7 10 7 8 8 7 9 9 8 8 8 6 6 4 3 3
-1 -1 -1 -1 -1 -1 -2 -2 -2 -1 -2 -2 -2 -2 -1 0 10 1 -2 -2 -2 -1 1 2 3 6 7 8 6 9 7 7 7 6 7 7 8 9 8 7 5 5 3 3 4
-1 -1 -1 -1 -1 -2 -2 -2 -2 -2 -2 -2 -2 -2 0 5 5 -0 -1 -1 -1 0 2 4 5 5 8 7 7 8 7 6 6 6 6 8 8 8 8 6 5 6 3 4 4
-1 -1 -1 -1 -1 -2 -2 -2 -2 -2 -2 -2 -2 -2 2 8 -0 -1 -1 -0 0 1 3 3 5 4 6 7 7 6 7 7 6 7 7 8 7 9 7 7 6 5 4 4 4
-1 -1 -1 -1 -1 -1 -2 -2 -2 -2 -2 -2 -2 -0 4 6 -1 -1 -0 0 0 1 4 2 2 4 5 7 5 6 9 8 7 7 7 6 9 9 6 7 7 6 5 4 3
-1 -1 -1 -1 -1 -1 -1 -1 -2 -2 -1 -2 -2 0 7 1 -1 1 -0 1 -0 0 1 1 1 4 5 5 7 9 9 11 8 7 7 8 12 7 6 8 8 7 5 4 4
-1 -1 -1 -1 -1 -1 -1 -1 -1 -2 -2 -2 1 2 8 1 3 1 0 2 2 1 1 1 3 6 6 9 11 10 12 12 10 7 8 8 10 7 6 7 7 7 6 5 4
-1 -1 -1 -1 -0 -1 -1 -1 -1 -2 -1 -0 1 5 5 6 3 1 0 1 3 4 5 5 6 9 9 10 15 13 13 10 11 9 8 10 10 7 7 8 8 7 6 5 4
-1 -1 -1 -1 -1 -1 -0 1 4 5 3 6 6 7 7 3 1 3 1 3 3 6 10 8 11 13 10 9 9 9 10 11 9 8 10 10 10 8 6 6 7 6 6 6 6
-1 -1 -1 -1 -1 -1 0 4 4 3 8 3 4 4 3 2 6 4 1 6 7 11 8 11 13 9 8 9 10 10 11 11 10 8 9 9 10 8 7 7 6 6 5 5 5
-1 -1 -1 -1 -1 0 2 4 1 1 8 7 4 5 4 3 6 6 4 5 8 10 10 12 10 8 9 10 12 12 12 12 12 10 9 10 11 10 8 7 6 6 6 5 5
-1 -1 -1 -1 1 1 4 2 2 2 11 11 8 6 4 4 7 3 3 5 7 10 9 11 8 9 11 12 11 15 9 11 11 12 15 10 15 11 10 9 8 7 6 6 6
-1 -1 -1 -1 2 4 2 1 2 5 20 9 8 3 4 7 6 7 3 5 8 9 9 11 10 10 12 11 9 12 8 10 11 13 13 13 15 11 9 10 9 8 6 6 5
-1 -1 -1 0 1 1 -0 1 4 14 19 12 8 9 9 7 7 6 6 4 5 9 8 10 7 8 9 8 8 8 11 11 11 13 19 14 14 13 11 10 9 8 7 6 5
-1 -1 -0 -0 4 -1 0 5 14 18 11 13 12 10 10 10 10 8 9 10 11 14 14 10 11 8 8 10 9 10 12 18 20 19 20 12 15 13 9 8 8 8 7 6 5
-1 -1 -0 0 -1 -0 3 11 17 14 13 10 10 10 12 10 10 10 10 12 9 9 11 14 15 10 8 10 12 12 12 17 21 21 17 13 17 13 8 7 6 7 7 6 6
-1 1 1 0 -1 1 7 15 15 13 12 11 11 13 13 11 11 11 11 11 9 9 13 14 13 8 8 8 9 12 15 10 16 15 17 14 12 9 9 9 7 7 7 7 6
2 3 3 -0 -1 3 10 13 13 10 10 10 13 11 15 13 12 12 12 9 10 8 7 10 14 9 8 7 8 10 9 16 16 21 22 16 14 13 10 10 8 8 7 6 6
3 7 2 -0 1 7 13 12 13 9 8 10 11 12 11 13 11 12 12 10 8 8 8 9 11 12 9 11 12 12 14 13 14 15 19 19 15 9 9 8 8 7 6 6 6
4 10 2 1 10 9 12 11 10 10 8 10 9 10 10 11 12 12 12 9 7 7 11 9 11 14 12 9 8 9 11 12 17 18 16 16 15 8 7 7 6 6 6 6 5
7 7 2 3 13 12 10 11 10 10 10 10 11 10 9 10 13 11 10 8 8 8 10 9 12 15 14 11 10 11 10 11 11 13 17 19 16 7 6 7 6 6 6 6 6
7 11 8 6 7 10 11 12 12 9 10 10 11 9 10 11 10 11 11 8 7 7 6 7 10 13 15 13 11 12 11 10 13 17 16 15 14 10 9 7 6 6 7 6 6
6 10 8 12 10 10 9 10 12 12 10 10 11 10 11 12 12 12 10 9 8 7 7 8 14 12 11 11 10 12 12 11 12 12 15 13 14 11 9 10 9 7 6 8 8
8 9 8 9 9 10 10 11 11 11 11 12 11 10 10 12 11 12 10 9 10 8 9 8 14 12 14 11 11 14 11 11 11 11 12 13 13 9 9 9 9 7 6 7 6
6 5 7 9 10 11 11 11 11 10 11 9 9 11 11 10 8 7 7 7 8 9 10 10 12 13 16 11 12 15 13 12 11 11 11 13 10 8 10 9 8 8 6 6 6